| time (UTC) | temp C | wind direction | speed KPH | gust KPH | rain 1hr cm | rain 24hr cm | rain mn cm | humidity % | barometer mb |
| 20260505124308 | 7 | 54 | 0.0 | 0.0 | 0.00 | 0.00 | 0.00 | 96 | 1014.6 |
| 20260505122808 | 7 | 52 | 0.0 | 0.0 | 0.00 | 0.00 | 0.00 | 96 | 1014.6 |
| 20260505121305 | 7 | 61 | 0.0 | 0.0 | 0.00 | 0.00 | 0.00 | 95 | 1014.5 |
| 20260505115802 | 8 | 48 | 0.0 | 0.0 | 0.00 | 0.00 | 0.00 | 94 | 1014.6 |
| 20260505114259 | 8 | 90 | 1.6 | 1.6 | 0.00 | 0.00 | 0.00 | 94 | 1014.5 |
| 20260505112759 | 8 | 73 | 0.0 | 1.6 | 0.00 | 0.00 | 0.00 | 93 | 1014.4 |
| 20260505111259 | 8 | 43 | 0.0 | 1.6 | 0.00 | 0.00 | 0.00 | 93 | 1014.0 |
| 20260505101246 | 10 | 84 | 0.0 | 1.6 | 0.00 | 0.00 | 0.00 | 90 | 1013.1 |
| 20260505095747 | 10 | 35 | 1.6 | 1.6 | 0.00 | 0.00 | 0.00 | 89 | 1012.9 |
| 20260505094243 | 10 | 210 | 3.2 | 3.2 | 0.00 | 0.00 | 0.00 | 89 | 1012.8 |
| 20260505092739 | 10 | 49 | 0.0 | 0.0 | 0.00 | 0.00 | 0.00 | 87 | 1012.9 |
| 20260505091238 | 11 | 87 | 1.6 | 3.2 | 0.00 | 0.00 | 0.00 | 85 | 1012.8 |
| 20260505085737 | 11 | 21 | 1.6 | 1.6 | 0.00 | 0.00 | 0.00 | 86 | 1012.7 |
| 20260505084237 | 11 | 55 | 0.0 | 0.0 | 0.00 | 0.00 | 0.00 | 84 | 1012.7 |
| 20260505082732 | 12 | 223 | 3.2 | 3.2 | 0.00 | 0.00 | 0.00 | 83 | 1012.5 |
| 20260505081229 | 12 | 3 | 1.6 | 1.6 | 0.00 | 0.00 | 0.00 | 81 | 1012.4 |
| 20260505075728 | 12 | 27 | 1.6 | 1.6 | 0.00 | 0.00 | 0.00 | 81 | 1012.2 |
| 20260505074226 | 13 | 71 | 0.0 | 1.6 | 0.00 | 0.00 | 0.00 | 76 | 1012.2 |
| 20260505072723 | 13 | 62 | 0.0 | 0.0 | 0.00 | 0.00 | 0.00 | 78 | 1012.1 |
| 20260505071218 | 13 | 55 | 0.0 | 0.0 | 0.00 | 0.00 | 0.00 | 77 | 1011.9 |
| 20260505065713 | 13 | 68 | 0.0 | 1.6 | 0.00 | 0.00 | 0.00 | 74 | 1011.8 |
| 20260505064211 | 14 | 78 | 0.0 | 1.6 | 0.00 | 0.00 | 0.00 | 74 | 1011.3 |
| 20260505062706 | 15 | 67 | 1.6 | 1.6 | 0.00 | 0.00 | 0.00 | 73 | 1011.3 |
| 20260505061205 | 15 | 75 | 1.6 | 1.6 | 0.00 | 0.00 | 0.00 | 71 | 1011.1 |
| 20260505055700 | 15 | 72 | 1.6 | 1.6 | 0.00 | 0.00 | 0.00 | 71 | 1010.9 |
| 20260505054158 | 15 | 79 | 1.6 | 1.6 | 0.00 | 0.00 | 0.00 | 69 | 1010.7 |
| 20260505052655 | 16 | 62 | 0.0 | 1.6 | 0.00 | 0.00 | 0.00 | 66 | 1010.8 |
| 20260505051153 | 16 | 86 | 1.6 | 1.6 | 0.00 | 0.00 | 0.00 | 65 | 1010.7 |
| 20260505041145 | 19 | 20 | 1.6 | 1.6 | 0.00 | 0.00 | 0.00 | 56 | 1010.3 |
| 20260505035641 | 20 | 110 | 3.2 | 3.2 | 0.00 | 0.00 | 0.00 | 48 | 1010.5 |
| 20260505034138 | 20 | 76 | 1.6 | 1.6 | 0.00 | 0.00 | 0.00 | 47 | 1009.8 |
| 20260505032636 | 20 | 66 | 0.0 | 1.6 | 0.00 | 0.00 | 0.00 | 46 | 1009.4 |
| 20260505031131 | 21 | 303 | 3.2 | 4.8 | 0.00 | 0.00 | 0.00 | 43 | 1009.0 |
| 20260505025626 | 21 | 217 | 3.2 | 16.1 | 0.00 | 0.00 | 0.00 | 39 | 1009.0 |
| 20260505024125 | 22 | 34 | 1.6 | 9.7 | 0.00 | 0.00 | 0.00 | 41 | 1008.8 |
| 20260505022622 | 22 | 137 | 11.3 | 20.9 | 0.00 | 0.00 | 0.00 | 40 | 1008.6 |
| 20260505021118 | 23 | 103 | 4.8 | 8.0 | 0.00 | 0.00 | 0.00 | 40 | 1008.2 |
| 20260505015613 | 25 | 87 | 8.0 | 9.7 | 0.00 | 0.00 | 0.00 | 37 | 1008.2 |
| 20260505014109 | 26 | 97 | 6.4 | 14.5 | 0.00 | 0.00 | 0.00 | 34 | 1007.9 |
| 20260505012608 | 26 | 56 | 4.8 | 8.0 | 0.00 | 0.00 | 0.00 | 33 | 1007.7 |
| 20260505011104 | 27 | 104 | 11.3 | 16.1 | 0.00 | 0.00 | 0.00 | 33 | 1007.8 |
| 20260505005603 | 27 | 108 | 3.2 | 8.0 | 0.00 | 0.00 | 0.00 | 32 | 1007.6 |
| 20260505004100 | 27 | 77 | 1.6 | 4.8 | 0.00 | 0.00 | 0.00 | 32 | 1007.5 |
| 20260505002555 | 27 | 35 | 3.2 | 11.3 | 0.00 | 0.00 | 0.00 | 30 | 1007.8 |
| 20260505001054 | 28 | 72 | 1.6 | 4.8 | 0.00 | 0.00 | 0.00 | 28 | 1007.7 |
| 20260504235552 | 27 | 71 | 1.6 | 3.2 | 0.00 | 0.00 | 0.00 | 30 | 1007.8 |
| 20260504234048 | 27 | 96 | 1.6 | 11.3 | 0.00 | 0.00 | 0.00 | 32 | 1008.0 |
| 20260504232543 | 27 | 116 | 3.2 | 17.7 | 0.00 | 0.00 | 0.00 | 34 | 1007.9 |
| 20260504231039 | 27 | 101 | 11.3 | 16.1 | 0.00 | 0.00 | 0.00 | 31 | 1008.3 |
| 20260504225537 | 26 | 98 | 3.2 | 8.0 | 0.00 | 0.00 | 0.00 | 32 | 1008.3 |
| 20260504224034 | 27 | 128 | 6.4 | 9.7 | 0.00 | 0.00 | 0.00 | 32 | 1008.2 |
| 20260504222529 | 27 | 50 | 0.0 | 4.8 | 0.00 | 0.00 | 0.00 | 29 | 1008.3 |
| 20260504221026 | 26 | 115 | 12.9 | 14.5 | 0.00 | 0.00 | 0.00 | 29 | 1008.4 |
| 20260504215522 | 27 | 92 | 4.8 | 4.8 | 0.00 | 0.00 | 0.00 | 31 | 1008.9 |
| 20260504214017 | 26 | 140 | 3.2 | 9.7 | 0.00 | 0.00 | 0.00 | 35 | 1008.9 |
| 20260504212513 | 26 | 88 | 6.4 | 12.9 | 0.00 | 0.00 | 0.00 | 33 | 1009.1 |
| 20260504211011 | 26 | 78 | 4.8 | 14.5 | 0.00 | 0.00 | 0.00 | 34 | 1009.2 |
| 20260504205508 | 26 | 24 | 1.6 | 3.2 | 0.00 | 0.00 | 0.00 | 36 | 1009.4 |
| 20260504204008 | 25 | 92 | 4.8 | 8.0 | 0.00 | 0.00 | 0.00 | 38 | 1009.5 |
| 20260504202504 | 26 | 125 | 3.2 | 4.8 | 0.00 | 0.00 | 0.00 | 33 | 1009.6 |
| 20260504201001 | 25 | 74 | 8.0 | 12.9 | 0.00 | 0.00 | 0.00 | 33 | 1009.8 |
| 20260504195456 | 25 | 100 | 4.8 | 8.0 | 0.00 | 0.00 | 0.00 | 33 | 1009.8 |
| 20260504193956 | 23 | 114 | 3.2 | 9.7 | 0.00 | 0.00 | 0.00 | 36 | 1009.9 |
| 20260504192455 | 23 | 63 | 1.6 | 3.2 | 0.00 | 0.00 | 0.00 | 35 | 1010.2 |
| 20260504190953 | 23 | 88 | 3.2 | 3.2 | 0.00 | 0.00 | 0.00 | 40 | 1010.5 |
| 20260504185449 | 22 | 51 | 0.0 | 8.0 | 0.00 | 0.00 | 0.00 | 39 | 1010.5 |
| 20260504183948 | 21 | 70 | 1.6 | 8.0 | 0.00 | 0.00 | 0.00 | 41 | 1010.8 |
| 20260504182446 | 21 | 91 | 4.8 | 8.0 | 0.00 | 0.00 | 0.00 | 45 | 1011.2 |
| 20260504180944 | 21 | 51 | 1.6 | 1.6 | 0.00 | 0.00 | 0.00 | 45 | 1011.3 |
| 20260504175443 | 19 | 78 | 3.2 | 3.2 | 0.00 | 0.00 | 0.00 | 46 | 1011.4 |
| 20260504173941 | 18 | 59 | 0.0 | 3.2 | 0.00 | 0.00 | 0.00 | 50 | 1011.6 |
| 20260504172437 | 18 | 74 | 4.8 | 4.8 | 0.00 | 0.00 | 0.00 | 54 | 1011.9 |
| 20260504170933 | 17 | 17 | 0.0 | 1.6 | 0.00 | 0.00 | 0.00 | 51 | 1012.1 |
| 20260504150906 | 11 | 45 | 0.0 | 0.0 | 0.00 | 0.00 | 0.00 | 71 | 1013.5 |